When you browse on this site, cookies collect data to enhance your experience and personalize the content and advertising you see.
Visit our Privacy Policy to learn more. By continuing to use the site, you agree to this use of cookies and data.
  • In Portugal
  • List of Countries
  • For 7 days
  • Water Temperature
  • Weather Map
  • Weather Widgets
  • user-avatar
    Login

    Hourly Weather Brisbane

    Today, 22 November, Friday

    Time Temperature Precipitation Wind Pressure Humidity
    00:00 +20°C° 0 mm 2 mps 762 mmHg 86%
    01:00 +20°C° 0 mm 2 mps 761 mmHg 87%
    02:00 +20°C° 0 mm 2 mps 761 mmHg 88%
    03:00 +19°C° 0 mm 2 mps 761 mmHg 88%
    04:00 +21°C° 0 mm 1 mps 761 mmHg 87%
    05:00 +21°C° 0 mm 2 mps 762 mmHg 81%
    06:00 +23°C° 0 mm 2 mps 762 mmHg 74%
    07:00 +24°C° 0 mm 2 mps 762 mmHg 68%
    08:00 +26°C° 0 mm 2 mps 762 mmHg 59%
    09:00 +28°C° 0 mm 3 mps 762 mmHg 50%
    10:00 +30°C° 0 mm 3 mps 762 mmHg 41%
    11:00 +31°C° 0 mm 3 mps 761 mmHg 40%
    12:00 +32°C° 0 mm 4 mps 761 mmHg 39%
    13:00 +33°C° 0 mm 5 mps 760 mmHg 38%
    14:00 +32°C° 0 mm 5 mps 760 mmHg 42%
    15:00 +30°C° 0 mm 5 mps 759 mmHg 46%
    16:00 +29°C° 0 mm 5 mps 759 mmHg 50%
    17:00 +27°C° 0 mm 5 mps 759 mmHg 58%
    18:00 +25°C° 0 mm 5 mps 760 mmHg 65%
    19:00 +23°C° 0 mm 4 mps 760 mmHg 73%
    20:00 +22°C° 0 mm 4 mps 760 mmHg 76%
    21:00 +21°C° 0 mm 3 mps 761 mmHg 79%
    22:00 +21°C° 0 mm 3 mps 761 mmHg 82%
    23:00 +20°C° 0 mm 3 mps 761 mmHg 83%

    Tomorrow, 23 November, Saturday

    Time Temperature Precipitation Wind Pressure Humidity
    00:00 +20°C° 0 mm 2 mps 761 mmHg 84%
    01:00 +20°C° 0 mm 2 mps 761 mmHg 85%
    02:00 +20°C° 0 mm 2 mps 761 mmHg 85%
    03:00 +19°C° 0 mm 2 mps 761 mmHg 86%
    04:00 +20°C° 0 mm 1 mps 761 mmHg 87%
    05:00 +22°C° 0 mm 1 mps 761 mmHg 80%
    06:00 +23°C° 0 mm 1 mps 762 mmHg 73%
    07:00 +24°C° 0 mm 2 mps 762 mmHg 66%
    08:00 +26°C° 0 mm 2 mps 762 mmHg 57%
    09:00 +28°C° 0 mm 2 mps 761 mmHg 48%
    10:00 +30°C° 0 mm 2 mps 761 mmHg 38%
    11:00 +31°C° 0 mm 3 mps 760 mmHg 39%
    12:00 +32°C° 0 mm 4 mps 760 mmHg 39%
    13:00 +32°C° 0 mm 5 mps 759 mmHg 39%
    14:00 +32°C° 0 mm 5 mps 758 mmHg 43%
    15:00 +30°C° 0 mm 5 mps 758 mmHg 46%
    16:00 +29°C° 0 mm 5 mps 758 mmHg 49%
    17:00 +27°C° 0 mm 5 mps 758 mmHg 57%
    18:00 +25°C° 0 mm 5 mps 758 mmHg 65%
    19:00 +23°C° 0 mm 4 mps 759 mmHg 73%
    20:00 +22°C° 0 mm 4 mps 759 mmHg 76%
    21:00 +21°C° 0 mm 3 mps 760 mmHg 79%
    22:00 +21°C° 0 mm 3 mps 760 mmHg 82%
    23:00 +20°C° 0 mm 2 mps 760 mmHg 83%

    Day after tomorrow, 24 November, Sunday

    Time Temperature Precipitation Wind Pressure Humidity
    00:00 +20°C° 0 mm 2 mps 760 mmHg 84%
    01:00 +20°C° 0 mm 2 mps 760 mmHg 85%
    02:00 +21°C° 0 mm 1 mps 760 mmHg 84%
    03:00 +21°C° 0 mm 1 mps 760 mmHg 84%
    04:00 +21°C° 0 mm 1 mps 760 mmHg 83%
    05:00 +22°C° 0 mm 1 mps 761 mmHg 77%
    06:00 +23°C° 0 mm 1 mps 761 mmHg 71%
    07:00 +25°C° 0 mm 2 mps 761 mmHg 65%
    08:00 +26°C° 0 mm 2 mps 761 mmHg 58%
    09:00 +28°C° 0 mm 2 mps 761 mmHg 50%
    10:00 +30°C° 0 mm 3 mps 760 mmHg 42%
    11:00 +30°C° 0 mm 4 mps 760 mmHg 40%
    12:00 +30°C° 0 mm 4 mps 759 mmHg 39%
    13:00 +32°C° 0 mm 5 mps 759 mmHg 37%
    14:00 +30°C° 0 mm 5 mps 758 mmHg 40%
    15:00 +29°C° 0 mm 5 mps 758 mmHg 43%
    16:00 +28°C° 0 mm 5 mps 758 mmHg 46%
    17:00 +26°C° 0 mm 5 mps 758 mmHg 54%
    18:00 +25°C° 0 mm 4 mps 759 mmHg 62%
    19:00 +22°C° 0 mm 4 mps 760 mmHg 70%
    20:00 +21°C° 0 mm 3 mps 760 mmHg 74%
    21:00 +21°C° 0 mm 3 mps 761 mmHg 78%
    22:00 +20°C° 0 mm 2 mps 761 mmHg 82%
    23:00 +20°C° 0 mm 2 mps 761 mmHg 82%

    25 November, Monday

    Time Temperature Precipitation Wind Pressure Humidity
    00:00 +20°C° 0 mm 2 mps 760 mmHg 83%
    01:00 +21°C° 0 mm 1 mps 760 mmHg 83%
    02:00 +21°C° 0 mm 1 mps 760 mmHg 81%
    03:00 +21°C° 0 mm 1 mps 760 mmHg 79%
    04:00 +21°C° 0 mm 1 mps 760 mmHg 78%
    05:00 +22°C° 0 mm 1 mps 761 mmHg 72%
    06:00 +23°C° 0 mm 1 mps 761 mmHg 66%
    07:00 +24°C° 0 mm 1 mps 761 mmHg 60%
    08:00 +26°C° 0 mm 2 mps 761 mmHg 53%
    09:00 +28°C° 0 mm 2 mps 761 mmHg 46%
    10:00 +30°C° 0 mm 3 mps 760 mmHg 38%
    11:00 +30°C° 0 mm 3 mps 760 mmHg 39%
    12:00 +30°C° 0 mm 4 mps 759 mmHg 39%
    13:00 +32°C° 0 mm 4 mps 758 mmHg 39%
    14:00 +30°C° 0 mm 4 mps 758 mmHg 42%
    15:00 +29°C° 0 mm 4 mps 757 mmHg 46%
    16:00 +28°C° 0 mm 5 mps 756 mmHg 50%
    17:00 +27°C° 0 mm 4 mps 757 mmHg 58%
    18:00 +25°C° 0 mm 4 mps 757 mmHg 65%
    19:00 +22°C° 0 mm 4 mps 758 mmHg 73%
    20:00 +22°C° 0 mm 4 mps 758 mmHg 77%
    21:00 +21°C° 0 mm 3 mps 758 mmHg 80%
    22:00 +20°C° 0 mm 3 mps 759 mmHg 84%
    23:00 +20°C° 0 mm 3 mps 759 mmHg 84%

    26 November, Tuesday

    Time Temperature Precipitation Wind Pressure Humidity
    00:00 +20°C° 0 mm 2 mps 758 mmHg 85%
    01:00 +20°C° 0 mm 2 mps 758 mmHg 86%
    02:00 +20°C° 0 mm 2 mps 758 mmHg 84%
    03:00 +20°C° 0 mm 2 mps 758 mmHg 83%
    04:00 +21°C° 0 mm 2 mps 758 mmHg 82%
    05:00 +21°C° 0 mm 2 mps 758 mmHg 78%
    06:00 +23°C° 0 mm 2 mps 759 mmHg 74%
    07:00 +24°C° 0 mm 2 mps 759 mmHg 70%
    08:00 +25°C° 0 mm 2 mps 759 mmHg 63%
    09:00 +27°C° 0 mm 2 mps 758 mmHg 56%
    10:00 +29°C° 0 mm 3 mps 758 mmHg 49%
    11:00 +30°C° 0 mm 3 mps 757 mmHg 46%
    12:00 +32°C° 0 mm 4 mps 757 mmHg 42%
    13:00 +34°C° 0 mm 5 mps 756 mmHg 38%
    14:00 +33°C° 0 mm 5 mps 755 mmHg 43%
    15:00 +32°C° 0 mm 6 mps 755 mmHg 47%
    16:00 +30°C° 0 mm 6 mps 754 mmHg 51%
    17:00 +28°C° 0 mm 6 mps 754 mmHg 58%
    18:00 +27°C° 0 mm 6 mps 755 mmHg 64%
    19:00 +24°C° 0 mm 6 mps 755 mmHg 71%
    20:00 +25°C° 0 mm 5 mps 756 mmHg 72%
    21:00 +23°C° 0 mm 4 mps 757 mmHg 74%
    22:00 +24°C° 0 mm 3 mps 757 mmHg 76%
    23:00 +23°C° 0.3 mm 2 mps 757 mmHg 78%

    27 November, Wednesday

    Time Temperature Precipitation Wind Pressure Humidity
    00:00 +23°C° 0.3 mm 2 mps 757 mmHg 81%
    01:00 +22°C° 0.3 mm 1 mps 757 mmHg 83%
    02:00 +22°C° 0.1 mm 1 mps 757 mmHg 84%
    03:00 +21°C° 0.1 mm 2 mps 757 mmHg 84%
    04:00 +21°C° 0.1 mm 2 mps 757 mmHg 84%
    05:00 +23°C° 0 mm 1 mps 758 mmHg 81%
    06:00 +24°C° 0 mm 1 mps 758 mmHg 77%
    07:00 +25°C° 0 mm 1 mps 759 mmHg 73%
    08:00 +27°C° 0 mm 1 mps 759 mmHg 65%
    09:00 +29°C° 0 mm 2 mps 759 mmHg 56%
    10:00 +31°C° 0 mm 3 mps 759 mmHg 48%
    11:00 +32°C° 0 mm 4 mps 759 mmHg 49%
    12:00 +32°C° 0 mm 5 mps 758 mmHg 51%
    13:00 +32°C° 0 mm 6 mps 758 mmHg 52%
    14:00 +30°C° 0 mm 6 mps 758 mmHg 55%
    15:00 +29°C° 0 mm 5 mps 758 mmHg 58%
    16:00 +28°C° 0 mm 5 mps 758 mmHg 61%
    17:00 +27°C° 0.1 mm 4 mps 759 mmHg 67%
    18:00 +26°C° 0.1 mm 4 mps 760 mmHg 72%
    19:00 +25°C° 0.1 mm 3 mps 761 mmHg 78%
    20:00 +24°C° 0 mm 3 mps 761 mmHg 81%
    21:00 +24°C° 0 mm 3 mps 761 mmHg 84%
    22:00 +23°C° 0 mm 2 mps 761 mmHg 86%
    23:00 +23°C° 0 mm 2 mps 761 mmHg 87%
    Show more